Regional Weather Roundup
Issued by NWS

Home | Current Version | Previous Version | Text Only | Print | Product List | Glossary On
Versions: 1 2 3 4 5 6 7 8 9 10 11 12 13 14 15 16 17 18 19 20 21 22 23 24 25 26 27 28 29 30 31 32 33 34 35 36 37 38 39 40 41 42 43 44 45 46 47 48 49 50
000
ASUS43 KLMK 020302
RWRKY
KENTUCKY REGIONAL WEATHER ROUNDUP
NATIONAL WEATHER SERVICE LOUISVILLE KY
1100 PM EDT WED OCT 01 2014

NOTE "FAIR" INDICATES FEW OR NO CLOUDS BELOW 12,000 FEET
WITH NO SIGNIFICANT WEATHER AND/OR OBSTRUCTIONS TO VISIBILITY.

KYZ001>023-026-027-061>063-070>075-020400-
WESTERN AND SOUTH CENTRAL KENTUCKY

CITY           SKY/WX    TMP DP  RH WIND       PRES   REMARKS
PADUCAH        CLEAR     72  60  66 S6        29.90S
HENDERSON      NOT AVBL
OWENSBORO      CLEAR     70  57  63 S5        29.95R
HOPKINSVILLE   CLEAR     73  60  63 SE3       29.95S
BOWLING GREEN  CLEAR     65  56  72 CALM      29.98S
GLASGOW        CLEAR     63  55  73 CALM      29.99S
$$

KYZ024-025-028>034-038-045-046-053-020400-
NORTH CENTRAL KENTUCKY

CITY           SKY/WX    TMP DP  RH WIND       PRES   REMARKS
LOUISVILLE/SDF CLEAR     71  57  61 SE3       29.98R
LOUISVILLE/LOU CLEAR     71  58  63 CALM      29.98S
FORT KNOX      CLEAR     67  59  76 E5        29.97S
$$

KYZ035>037-039>044-047>052-055>060-089>105-020400-
NORTHEAST KENTUCKY

CITY           SKY/WX    TMP DP  RH WIND       PRES   REMARKS
LEXINGTON      CLEAR     70  59  68 SE5       30.02R
COVINGTON      CLEAR     63  50  62 E5        30.01S
FRANKFORT      CLEAR     65  58  78 CALM      30.00S
$$

KYZ054-064>069-076>088-106>120-020400-
SOUTHEAST KENTUCKY

CITY           SKY/WX    TMP DP  RH WIND       PRES   REMARKS
JACKSON        CLEAR     67  59  75 CALM      30.05S
LONDON         CLEAR     63  59  87 CALM      30.05R
SOMERSET       CLEAR     61  59  94 CALM      30.04R
MIDDLESBORO    CLEAR     58  57  96 CALM      30.07S
MONTICELLO     CLEAR     58  56  93 CALM      30.04R
$$



USA.gov is the U.S. government's official web portal to all federal, state and local government web resources and services.